TITAN 3C TRANSTAGE DEB, 1653

Orbit data source: Space-Track

TITAN 3C TRANSTAGE DEB, 1653 is space debris in LEO originally from a launch on Fri, 15 Oct 1965 UTC launched from the Air Force Eastern Test Range (AFETR). Debris objects in space refer to the collection of defunct objects orbiting the Earth. Examples of debris include non-operational satellites, rocket bodies, and fragments generated from explosions, collisions, or faulty payload assembly.

Loading next visibility...
Identifier
1653, 1965-082Q
Orbit
LEO
Country
Flag of USUS
Related business
Manufacturer
Unknown
Mission
Spacecraft
Bus & Motor
Unknown
Mass
Unknown
Launch date (UTC)
1965-10-15 (60 years ago)
Launch vehicle
Unknown
Launch site
Air Force Eastern Test Range (AFETR)
Object type
Payload
Rocket body
Debris
Shape & HBR
Unknown shape, 0.6 m
Radar Cross Section
Medium (>0.1 m² and <1 m²)

Expand to show TLE details & history
Last TLE update: 1 day ago

TLE from 1 day ago
0 TITAN 3C TRANSTAGE DEB
1 01653U 65082Q   25310.58261142  .00000781  00000-0  13687-3 0  9990
2 01653  32.1199  45.4789 0040956 200.3143 159.5873 14.64137144178858
Epoch: 2025-11-06T13:58Z
TLE epoch observation values (Epoch: 2025-11-06T13:58:57.626Z)
Latitude
Longitude
149.69994°
Altitude
705.594 km
Speed
7.491 km/s
True Right ascension
03h 01m 54s
True Declination
0° 00' 00"
Sunlit
Object was in full shadow at epoch
Visualization orbit readout
Latitude
Unknown
Longitude
Unknown
Altitude
Unknown
Speed
Unknown
Apparent Right ascension
Unknown
Apparent Declination
Unknown
Sunlit
N/A
Visualization observer readout
Local Sidereal Time
14:10:45
Azimuth
Unknown
Elevation
Unknown
Doppler factor
Unknown
Orbital elements
Apogee altitude
712.368 km
Perigee altitude
654.525 km
Semi-major axis
7,061.584 km
Eccentricity
0.0041
Inclination
32.1199°
RAAN
45.4789°
Arg. of periapsis
200.3143°
True anomaly
159.75021°
Mean anomaly
159.5873°
Eccentric anomaly
159.66883°
Mean motion
3.65755 °/min
Orbital period
98.43 mins
BSTAR
0.00013687

Documentation

Showing up to 5 results
|